Location: Lane
(33.5226°N, 79.8788°W)
Time: 01:56:32
(UTC+00:00)

Vanguard 1 Rocket - Pass Details

Date: 11 October 2022
Orbit: 650 x 4225 km, 34.3° (Epoch: 05 December)

Event Time Altitude Azimuth Distance (km) Brightness Sun altitude
Rises 00:19:51 0° 260° (W) 8,468 13.8 -19.1°
Reaches altitude 10° 00:25:55 10° 260° (W) 7,384 13.1 -20.4°
Maximum altitude 00:50:52 89° 353° (N) 3,092 9.9 -25.5°
Enters shadow 00:58:56 38° 83° (E) 3,369 9.7 -27.2°
